Regional Weather Roundup
Issued by NWS

Home | Current Version | Previous Version | Text Only | Print | Product List | Glossary Off
Versions: 1 2 3 4 5 6 7 8 9 10 11 12 13 14 15 16 17 18 19 20 21 22 23 24 25 26 27 28 29 30 31 32 33 34 35 36 37 38 39 40 41 42 43 44 45 46 47 48 49 50

000
ASUS43 KDMX 040907
RWRIA

WEATHER ROUNDUP FOR IOWA
NATIONAL WEATHER SERVICE DES MOINES IA
400 AM CDT TUE AUG 04 2015

NOTE: "FAIR" INDICATES FEW OR NO CLOUDS BELOW 12,000 FEET WITH NO
SIGNIFICANT WEATHER AND/OR OBSTRUCTIONS TO VISIBILITY.

* - THESE STATIONS ARE NOT NWS STATIONS...THUS NOT UNDER NWS
QUALITY CONTROL.  THEY ALSO DO NOT REPORT WEATHER SUCH
AS PRECIPITATION OR FOG.

IAZ001>003-012>014-020>022-031>034-043>046-041000-
   NORTHWEST IOWA

CITY           SKY/WX    TMP DP  RH WIND       PRES   REMARKS
CARROLL *      PTCLDY    59  59 100 CALM      29.95F
CHEROKEE *     CLEAR     61  61 100 NE3       29.96S
DENISON *      CLOUDY    66  63  88 CALM      29.94R
LE MARS *      CLEAR     61  59  94 N3        29.96R
ORANGE CITY *  CLEAR     63  59  88 NE5       29.97R
SHELDON *      CLEAR     55  54  94 SE3       29.96S
SIOUX CITY     MOCLDY    66  60  81 SE3       29.95R
SPENCER        CLEAR     56  53  90 NE8       29.97F
STORM LAKE *   CLEAR     63  57  82 SW5       29.97S
$$

IAZ055>058-069>071-079>083-090>094-041000-
   SOUTHWEST IOWA

CITY           SKY/WX    TMP DP  RH WIND       PRES   REMARKS
ATLANTIC *     MOCLDY    64  64 100 CALM      29.96S
AUDUBON *      CLOUDY    64  63  94 CALM      29.97S
CLARINDA *     PTCLDY    68  63  83 SE5       29.96F
COUNCIL BLFS *   N/A     68  61  77 SE8       29.95F
CRESTON *      MOCLDY    64  63  94 SE5       29.98F
HARLAN  *      CLOUDY    66  66 100 CALM      29.99S
LAMONI         MOCLDY    69  62  78 CALM      29.98R
RED OAK *      PTCLDY    66  64  94 S5        29.96F
SHENANDOAH *   PTCLDY    68  63  83 CALM      29.96S
$$

IAZ047>049-059>061-072>074-084-041000-
   CENTRAL IOWA

CITY           SKY/WX    TMP DP  RH WIND       PRES   REMARKS
AMES           CLEAR     59  57  93 CALM      29.95F
ANKENY *       PTCLDY    61  59  94 CALM      29.95S
CHARITON *     MOCLDY    66  61  82 S3        29.97R
DES MOINES     MOCLDY    69  59  70 CALM      29.95R
GRINNELL*      CLEAR     59  55  88 CALM      29.95F
KNOXVILLE *    CLOUDY    66  59  77 S5        29.95R
MARSHALLTOWN   CLEAR     58  57  97 CALM      29.95F
PELLA *        CLEAR     63  63 100 CALM      29.97R
PERRY *          N/A     63  61  94 CALM      29.95F
$$

IAZ004>006-015-016-023>025-035-036-041000-
   NORTH CENTRAL IOWA

CITY           SKY/WX    TMP DP  RH WIND       PRES   REMARKS
ALGONA *       CLEAR     57  55  94 CALM      29.97F
CLARION *      CLEAR     54  52  94 CALM      29.96F
ESTHERVILLE    CLEAR     54  52  93 NW3       29.98S
FORT DODGE *   CLEAR     57  55  94 CALM      29.96F
MASON CITY     CLEAR     57  53  86 W6        29.98F
FOREST CITY *  CLEAR     52  52 100 CALM      29.98S FOG
IOWA FALLS *     N/A     55  54  94 CALM      29.97F
$$

IAZ007>011-017>019-026>030-037>042-050>054-066-041000-
   NORTHEAST IOWA

CITY           SKY/WX    TMP DP  RH WIND       PRES   REMARKS
CEDAR RAPIDS   CLEAR     59  58  96 N6        29.95S
CHARLES CITY * CLEAR     55  55 100 W5        29.97S
CLINTON *      CLEAR     55  55 100 W3        29.97F
DECORAH *      CLEAR     57  54  88 CALM      29.94F
DUBUQUE        CLEAR     56  53  90 S5        29.95S
MONTICELLO *   CLEAR     54  54 100 CALM      29.95S
OELWEIN *      CLEAR     55  55 100 CALM      29.97S
WATERLOO       CLEAR     56  55  97 CALM      29.95F
$$

IAZ064-065-067-068-078-041000-
   EAST CENTRAL IOWA

CITY           SKY/WX    TMP DP  RH WIND       PRES   REMARKS
DAVENPORT      CLEAR     55  53  93 CALM      29.95F
IOWA CITY      CLEAR     60  56  86 S3        29.96S
MT. PLEASANT * PTCLDY    61  57  88 CALM      29.96S
MUSCATINE *    CLEAR     59  55  88 CALM      29.96R
QUAD CITIES    CLEAR     59  55  87 CALM      29.95R
$$

IAZ062-063-075>077-085>089-095>099-041000-
   SOUTHEAST IOWA

CITY           SKY/WX    TMP DP  RH WIND       PRES   REMARKS
BURLINGTON     MOCLDY    62  59  90 N6        29.95S
FAIRFIELD *    MOCLDY    61  59  94 CALM      29.96S
FORT MADISON * MOCLDY    61  59  94 CALM      29.97R
KEOKUK *       MOCLDY    64  63  94 CALM      29.95S
OSKALOOSA *    MOCLDY    59  59 100 CALM      29.97R
CENTERVILLE *  PTCLDY    63  61  94 S3        29.99R
OTTUMWA        CLOUDY    63  62  97 S3        29.95R
WASHINGTON *   CLEAR     57  57 100 CALM      29.97S
$$

ABBREVIATIONS USED IN REMARKS
   TC - TEMPERATURES IN CELSIUS
  WCI - WIND CHILL INDEX
   HX - HEAT INDEX
  VSB - VISIBILITY
$$




USA.gov is the U.S. government's official web portal to all federal, state and local government web resources and services.